JBU1698 KFLL-KATL

Flight info

Callsign JBU1698
Flight time 1h 29m
Altitude 35000
Route FRSBE2 STYMY Q77 SHRKS LAIRI LARZZ JJEDI4
Aircraft A320/M-SDE3FGHIRWY/LB1

Departure

Time 2026-05-05 16:43
Airport Fort Lauderdale Hollywood International Airport (KFLL)

Arrival

Time 2026-05-05 18:12
Airport Hartsfield Jackson Atlanta International Airport (KATL)
Time Latitude Longitude Altitude Speed Heading
2026-05-05 16:23 26.07149 -80.14688 16 ft 0 kts 176°
2026-05-05 16:31 26.07164 -80.14689 16 ft 4 kts 176°
2026-05-05 16:32 26.07188 -80.14691 18 ft 1 kts 177°
2026-05-05 16:32 26.07212 -80.14695 18 ft 4 kts 155°
2026-05-05 16:32 26.07231 -80.14712 17 ft 4 kts 107°
2026-05-05 16:32 26.07234 -80.14739 17 ft 4 kts 76°
2026-05-05 16:33 26.07224 -80.14757 16 ft 4 kts 342°
2026-05-05 16:33 26.07213 -80.14739 17 ft 4 kts 275°
2026-05-05 16:33 26.07212 -80.14725 18 ft 1 kts 275°
2026-05-05 16:36 26.07212 -80.14726 18 ft 1 kts 275°
2026-05-05 16:36 26.07220 -80.14760 19 ft 8 kts 294°
2026-05-05 16:36 26.07260 -80.14824 16 ft 11 kts 309°
2026-05-05 16:36 26.07309 -80.14853 16 ft 7 kts 356°
2026-05-05 16:37 26.07363 -80.14866 16 ft 10 kts 318°
2026-05-05 16:37 26.07392 -80.14939 18 ft 11 kts 306°
2026-05-05 16:37 26.07452 -80.15002 16 ft 13 kts 316°
2026-05-05 16:37 26.07516 -80.15072 17 ft 13 kts 315°
2026-05-05 16:38 26.07562 -80.15164 16 ft 15 kts 279°
2026-05-05 16:38 26.07564 -80.15278 16 ft 15 kts 270°
2026-05-05 16:38 26.07564 -80.15394 15 ft 15 kts 270°
2026-05-05 16:38 26.07564 -80.15503 15 ft 14 kts 270°
2026-05-05 16:39 26.07565 -80.15616 16 ft 15 kts 270°
2026-05-05 16:39 26.07565 -80.15724 16 ft 14 kts 270°
2026-05-05 16:39 26.07566 -80.15835 16 ft 15 kts 271°
2026-05-05 16:39 26.07568 -80.15951 16 ft 15 kts 271°
2026-05-05 16:40 26.07569 -80.16071 17 ft 15 kts 271°
2026-05-05 16:40 26.07569 -80.16184 17 ft 15 kts 270°
2026-05-05 16:40 26.07570 -80.16295 17 ft 15 kts 270°
2026-05-05 16:40 26.07571 -80.16411 17 ft 14 kts 270°
2026-05-05 16:41 26.07571 -80.16527 16 ft 15 kts 270°
2026-05-05 16:41 26.07585 -80.16635 17 ft 13 kts 309°
2026-05-05 16:41 26.07670 -80.16644 18 ft 9 kts
2026-05-05 16:41 26.07697 -80.16602 18 ft 2 kts 93°
2026-05-05 16:42 26.07695 -80.16546 18 ft 32 kts 91°
2026-05-05 16:42 26.07691 -80.16048 19 ft 94 kts 90°
2026-05-05 16:42 26.07685 -80.15142 16 ft 139 kts 90°
2026-05-05 16:42 26.07675 -80.13952 283 ft 156 kts 89°
2026-05-05 16:43 26.07679 -80.12752 858 ft 154 kts 87°
2026-05-05 16:43 26.07722 -80.11546 1350 ft 160 kts 83°
2026-05-05 16:43 26.07789 -80.10221 1671 ft 182 kts 77°
2026-05-05 16:43 26.08215 -80.08828 2073 ft 202 kts 63°
2026-05-05 16:44 26.08984 -80.07416 2586 ft 226 kts 40°
2026-05-05 16:44 26.10412 -80.06555 3290 ft 248 kts 20°
2026-05-05 16:44 26.12068 -80.05893 4270 ft 256 kts 17°
2026-05-05 16:44 26.13777 -80.05214 5169 ft 263 kts 18°
2026-05-05 16:45 26.15578 -80.04816 6083 ft 268 kts 354°
2026-05-05 16:45 26.17395 -80.05303 6982 ft 272 kts 339°
2026-05-05 16:45 26.19196 -80.05993 7792 ft 276 kts 338°
2026-05-05 16:45 26.20958 -80.06866 8528 ft 278 kts 324°
2026-05-05 16:46 26.22406 -80.08270 9265 ft 277 kts 307°
2026-05-05 16:46 26.23405 -80.10097 10007 ft 277 kts 290°
2026-05-05 16:46 26.24116 -80.12130 10434 ft 291 kts 289°
2026-05-05 16:46 26.24884 -80.14321 10584 ft 314 kts 290°
2026-05-05 16:47 26.25835 -80.16567 10964 ft 327 kts 299°
2026-05-05 16:47 26.27058 -80.18684 11583 ft 331 kts 300°
2026-05-05 16:47 26.28303 -80.20854 12260 ft 332 kts 300°
2026-05-05 16:47 26.29544 -80.23038 12951 ft 334 kts 299°
2026-05-05 16:48 26.30788 -80.25235 13641 ft 336 kts 299°
2026-05-05 16:48 26.32039 -80.27450 14265 ft 338 kts 299°
2026-05-05 16:48 26.33297 -80.29676 14820 ft 340 kts 299°
2026-05-05 16:48 26.34565 -80.31917 15360 ft 343 kts 299°
2026-05-05 16:49 26.35838 -80.34170 15908 ft 345 kts 299°
2026-05-05 16:49 26.37126 -80.36446 16469 ft 348 kts 299°
2026-05-05 16:49 26.38427 -80.38740 17017 ft 351 kts 299°
2026-05-05 16:49 26.39290 -80.40266 17378 ft 352 kts 299°
2026-05-05 16:50 26.41032 -80.43344 18102 ft 356 kts 298°
2026-05-05 16:50 26.42361 -80.45693 18597 ft 359 kts 299°
2026-05-05 16:50 26.43694 -80.48054 19078 ft 361 kts 298°
2026-05-05 16:50 26.44604 -80.49665 19403 ft 363 kts 298°
2026-05-05 16:51 26.45939 -80.52022 19891 ft 365 kts 299°
2026-05-05 16:51 26.47525 -80.54272 20380 ft 373 kts 310°
2026-05-05 16:51 26.49541 -80.56142 20868 ft 382 kts 322°
2026-05-05 16:51 26.51933 -80.57520 21353 ft 392 kts 334°
2026-05-05 16:52 26.54568 -80.58412 21812 ft 399 kts 338°
2026-05-05 16:52 26.57247 -80.59255 22284 ft 401 kts 338°
2026-05-05 16:52 26.59944 -80.60111 22787 ft 403 kts 338°
2026-05-05 16:52 26.62652 -80.60974 23235 ft 406 kts 338°
2026-05-05 16:53 26.65376 -80.61843 23675 ft 409 kts 338°
2026-05-05 16:53 26.68116 -80.62717 24044 ft 411 kts 338°
2026-05-05 16:53 26.70845 -80.63585 24420 ft 412 kts 338°
2026-05-05 16:53 26.73602 -80.64460 24805 ft 414 kts 338°
2026-05-05 16:54 26.76385 -80.65342 25189 ft 415 kts 338°
2026-05-05 16:54 26.79159 -80.66225 25565 ft 416 kts 338°
2026-05-05 16:54 26.81946 -80.67115 25935 ft 417 kts 338°
2026-05-05 16:54 26.84744 -80.68010 26295 ft 418 kts 337°
2026-05-05 16:55 26.87547 -80.68906 26642 ft 420 kts 337°
2026-05-05 16:55 26.90366 -80.69806 27026 ft 421 kts 337°
2026-05-05 16:55 26.93176 -80.70738 27389 ft 421 kts 336°
2026-05-05 16:55 26.95973 -80.71753 27742 ft 421 kts 334°
2026-05-05 16:56 26.98752 -80.72821 28097 ft 422 kts 334°
2026-05-05 16:56 27.01529 -80.73912 28458 ft 423 kts 333°
2026-05-05 16:56 27.04279 -80.74993 28806 ft 425 kts 333°
2026-05-05 16:56 27.07076 -80.76082 29176 ft 426 kts 334°
2026-05-05 16:57 27.09872 -80.77151 29677 ft 424 kts 334°
2026-05-05 16:57 27.12660 -80.78203 30189 ft 421 kts 334°
2026-05-05 16:57 27.15433 -80.79246 30608 ft 419 kts 334°
2026-05-05 16:57 27.18205 -80.80287 31003 ft 418 kts 333°
2026-05-05 16:58 27.20960 -80.81327 31391 ft 417 kts 333°
2026-05-05 16:58 27.23709 -80.82367 31796 ft 416 kts 333°
2026-05-05 16:58 27.26451 -80.83411 32203 ft 415 kts 333°
2026-05-05 16:58 27.29182 -80.84458 32607 ft 414 kts 333°
2026-05-05 16:59 27.31904 -80.85500 33010 ft 413 kts 333°
2026-05-05 16:59 27.34609 -80.86551 33415 ft 411 kts 332°
2026-05-05 16:59 27.37257 -80.87621 33824 ft 409 kts 332°
2026-05-05 16:59 27.39957 -80.88741 34204 ft 407 kts 331°
2026-05-05 17:00 27.42573 -80.89838 34507 ft 407 kts 331°
2026-05-05 17:00 27.45266 -80.90963 34799 ft 407 kts 331°
2026-05-05 17:00 27.47886 -80.92053 35007 ft 408 kts 331°
2026-05-05 17:00 27.50561 -80.93160 35066 ft 412 kts 331°
2026-05-05 17:01 27.56021 -80.95420 35062 ft 420 kts 332°
2026-05-05 17:01 27.61510 -80.97680 35070 ft 420 kts 331°
2026-05-05 17:02 27.67006 -80.99941 35069 ft 420 kts 331°
2026-05-05 17:02 27.72503 -81.02209 35065 ft 420 kts 331°
2026-05-05 17:03 27.77997 -81.04488 35068 ft 420 kts 331°
2026-05-05 17:03 27.83439 -81.06747 35066 ft 419 kts 331°
2026-05-05 17:04 27.88915 -81.09018 35080 ft 420 kts 332°
2026-05-05 17:04 27.94406 -81.11293 35083 ft 420 kts 332°
2026-05-05 17:05 27.99886 -81.13573 35099 ft 419 kts 332°
2026-05-05 17:05 28.05339 -81.15898 35109 ft 417 kts 329°
2026-05-05 17:06 28.10618 -81.18559 35120 ft 413 kts 327°
2026-05-05 17:06 28.15817 -81.21353 35125 ft 413 kts 327°
2026-05-05 17:07 28.21021 -81.24102 35129 ft 413 kts 327°
2026-05-05 17:07 28.26260 -81.26807 35130 ft 413 kts 328°
2026-05-05 17:08 28.31496 -81.29496 35127 ft 413 kts 328°
2026-05-05 17:08 28.36733 -81.32185 35126 ft 412 kts 328°
2026-05-05 17:09 28.41932 -81.34834 35131 ft 412 kts 328°
2026-05-05 17:09 28.47163 -81.37500 35128 ft 411 kts 328°
2026-05-05 17:10 28.52380 -81.40176 35138 ft 411 kts 328°
2026-05-05 17:10 28.57600 -81.42853 35138 ft 411 kts 328°
2026-05-05 17:11 28.62808 -81.45526 35139 ft 410 kts 328°
2026-05-05 17:11 28.67979 -81.48182 35132 ft 410 kts 328°
2026-05-05 17:12 28.73173 -81.50851 35133 ft 409 kts 328°
2026-05-05 17:12 28.78367 -81.53522 35128 ft 409 kts 328°
2026-05-05 17:13 28.83549 -81.56189 35131 ft 408 kts 328°
2026-05-05 17:13 28.88728 -81.58859 35128 ft 408 kts 328°
2026-05-05 17:14 28.94151 -81.61008 35128 ft 422 kts 342°
2026-05-05 17:14 29.00077 -81.61601 35125 ft 428 kts 347°
2026-05-05 17:15 29.05979 -81.62123 35128 ft 428 kts 346°
2026-05-05 17:15 29.11906 -81.62669 35130 ft 427 kts 346°
2026-05-05 17:16 29.17835 -81.63215 35132 ft 427 kts 346°
2026-05-05 17:16 29.23760 -81.63764 35128 ft 426 kts 346°
2026-05-05 17:17 29.29675 -81.64307 35132 ft 426 kts 346°
2026-05-05 17:17 29.35583 -81.64845 35133 ft 425 kts 346°
2026-05-05 17:18 29.41477 -81.65383 35136 ft 425 kts 346°
2026-05-05 17:18 29.47369 -81.65926 35135 ft 424 kts 346°
2026-05-05 17:19 29.53248 -81.66469 35137 ft 424 kts 346°
2026-05-05 17:19 29.59124 -81.67012 35135 ft 423 kts 346°
2026-05-05 17:20 29.64960 -81.67543 35140 ft 423 kts 346°
2026-05-05 17:20 29.70813 -81.68088 35146 ft 422 kts 346°
2026-05-05 17:21 29.76677 -81.68643 35142 ft 421 kts 346°
2026-05-05 17:22 29.85448 -81.69454 35144 ft 421 kts 346°
2026-05-05 17:22 29.91278 -81.69990 35146 ft 420 kts 346°
2026-05-05 17:23 29.97117 -81.70526 35146 ft 420 kts 346°
2026-05-05 17:23 30.02908 -81.71070 35137 ft 419 kts 346°
2026-05-05 17:24 30.08719 -81.71621 35147 ft 419 kts 346°
2026-05-05 17:24 30.14530 -81.72165 35153 ft 418 kts 346°
2026-05-05 17:25 30.20332 -81.72701 35161 ft 418 kts 346°
2026-05-05 17:25 30.26135 -81.73237 35155 ft 417 kts 346°
2026-05-05 17:26 30.31931 -81.73778 35158 ft 417 kts 346°
2026-05-05 17:26 30.37675 -81.74322 35147 ft 416 kts 346°
2026-05-05 17:27 30.43483 -81.74872 35138 ft 416 kts 346°
2026-05-05 17:27 30.49214 -81.75405 35134 ft 416 kts 346°
2026-05-05 17:28 30.54978 -81.75943 35138 ft 415 kts 346°
2026-05-05 17:28 30.60715 -81.76562 35134 ft 409 kts 340°
2026-05-05 17:28 30.63419 -81.77397 35136 ft 397 kts 331°
2026-05-05 17:29 30.65915 -81.78712 35134 ft 391 kts 326°
2026-05-05 17:29 30.70784 -81.81538 34946 ft 390 kts 330°
2026-05-05 17:29 30.73164 -81.82907 35071 ft 376 kts 328°
2026-05-05 17:30 30.75488 -81.84239 35101 ft 370 kts 328°
2026-05-05 17:30 30.80041 -81.86871 35107 ft 366 kts 328°
2026-05-05 17:31 30.84606 -81.89525 35102 ft 366 kts 328°
2026-05-05 17:31 30.89154 -81.92166 35097 ft 366 kts 328°
2026-05-05 17:32 30.93710 -81.94809 35100 ft 366 kts 328°
2026-05-05 17:32 30.98273 -81.97467 35105 ft 366 kts 328°
2026-05-05 17:33 31.02825 -82.00121 35113 ft 366 kts 328°
2026-05-05 17:33 31.07383 -82.02777 35115 ft 366 kts 328°
2026-05-05 17:34 31.11922 -82.05423 35118 ft 367 kts 328°
2026-05-05 17:34 31.16488 -82.08089 35122 ft 367 kts 328°
2026-05-05 17:35 31.21055 -82.10756 35126 ft 367 kts 328°
2026-05-05 17:35 31.25620 -82.13427 35128 ft 367 kts 328°
2026-05-05 17:36 31.29412 -82.15651 35128 ft 367 kts 328°
2026-05-05 17:36 31.33972 -82.18326 35127 ft 367 kts 328°
2026-05-05 17:37 31.38536 -82.21004 35127 ft 367 kts 328°
2026-05-05 17:37 31.43103 -82.23683 35124 ft 367 kts 328°
2026-05-05 17:38 31.47662 -82.26368 35127 ft 367 kts 327°
2026-05-05 17:38 31.52220 -82.29063 35126 ft 367 kts 327°
2026-05-05 17:39 31.56751 -82.31733 35127 ft 367 kts 327°
2026-05-05 17:39 31.61340 -82.34446 35126 ft 367 kts 327°
2026-05-05 17:40 31.65872 -82.37127 35125 ft 367 kts 327°
2026-05-05 17:40 31.70437 -82.39827 35114 ft 368 kts 327°
2026-05-05 17:40 31.72749 -82.41195 34877 ft 374 kts 327°
2026-05-05 17:41 31.75079 -82.42575 34644 ft 375 kts 327°
2026-05-05 17:41 31.77410 -82.43955 34414 ft 375 kts 327°
2026-05-05 17:41 31.79734 -82.45332 34187 ft 374 kts 327°
2026-05-05 17:41 31.82051 -82.46702 33943 ft 373 kts 328°
2026-05-05 17:42 31.84373 -82.48075 33685 ft 373 kts 328°
2026-05-05 17:42 31.86689 -82.49446 33423 ft 372 kts 328°
2026-05-05 17:42 31.89000 -82.50819 33174 ft 372 kts 328°
2026-05-05 17:42 31.91309 -82.52196 32921 ft 372 kts 328°
2026-05-05 17:43 31.93620 -82.53574 32676 ft 371 kts 328°
2026-05-05 17:43 31.95848 -82.55021 32420 ft 368 kts 323°
2026-05-05 17:43 31.97910 -82.56785 32170 ft 365 kts 317°
2026-05-05 17:43 31.99824 -82.58745 31929 ft 365 kts 316°
2026-05-05 17:44 32.01741 -82.60706 31682 ft 365 kts 316°
2026-05-05 17:44 32.03662 -82.62664 31436 ft 365 kts 316°
2026-05-05 17:44 32.05584 -82.64618 31191 ft 365 kts 316°
2026-05-05 17:44 32.07511 -82.66576 30958 ft 366 kts 316°
2026-05-05 17:45 32.09441 -82.68540 30718 ft 366 kts 316°
2026-05-05 17:45 32.11364 -82.70497 30483 ft 366 kts 316°
2026-05-05 17:45 32.13294 -82.72466 30257 ft 366 kts 316°
2026-05-05 17:45 32.15222 -82.74440 30003 ft 366 kts 316°
2026-05-05 17:46 32.17120 -82.76386 29731 ft 365 kts 316°
2026-05-05 17:46 32.19042 -82.78356 29463 ft 364 kts 316°
2026-05-05 17:46 32.20953 -82.80311 29194 ft 363 kts 316°
2026-05-05 17:46 32.22864 -82.82264 28927 ft 362 kts 316°
2026-05-05 17:47 32.24766 -82.84212 28663 ft 361 kts 316°
2026-05-05 17:47 32.26655 -82.86150 28403 ft 360 kts 316°
2026-05-05 17:47 32.28544 -82.88091 28143 ft 359 kts 316°
2026-05-05 17:47 32.30425 -82.90027 27883 ft 358 kts 316°
2026-05-05 17:48 32.32297 -82.91953 27629 ft 357 kts 316°
2026-05-05 17:48 32.34164 -82.93876 27385 ft 356 kts 316°
2026-05-05 17:48 32.36032 -82.95799 27134 ft 355 kts 316°
2026-05-05 17:48 32.37890 -82.97714 26891 ft 354 kts 316°
2026-05-05 17:49 32.39748 -82.99626 26649 ft 353 kts 316°
2026-05-05 17:49 32.41574 -83.01504 26408 ft 352 kts 316°
2026-05-05 17:49 32.43447 -83.03429 26169 ft 352 kts 316°
2026-05-05 17:49 32.45266 -83.05299 25936 ft 351 kts 316°
2026-05-05 17:50 32.47117 -83.07205 25700 ft 350 kts 316°
2026-05-05 17:50 32.48953 -83.09099 25467 ft 349 kts 316°
2026-05-05 17:50 32.50788 -83.10989 25233 ft 349 kts 316°
2026-05-05 17:50 32.52614 -83.12872 25002 ft 348 kts 316°
2026-05-05 17:51 32.54437 -83.14756 24773 ft 347 kts 316°
2026-05-05 17:51 32.56252 -83.16632 24545 ft 347 kts 315°
2026-05-05 17:51 32.58069 -83.18510 24319 ft 346 kts 315°
2026-05-05 17:51 32.59884 -83.20384 24094 ft 345 kts 315°
2026-05-05 17:52 32.61672 -83.22234 23872 ft 345 kts 315°
2026-05-05 17:52 32.63472 -83.24103 23642 ft 344 kts 315°
2026-05-05 17:52 32.65273 -83.25973 23376 ft 343 kts 315°
2026-05-05 17:52 32.67063 -83.27834 23111 ft 342 kts 315°
2026-05-05 17:53 32.68856 -83.29701 22841 ft 342 kts 315°
2026-05-05 17:53 32.70642 -83.31560 22571 ft 341 kts 315°
2026-05-05 17:53 32.72431 -83.33420 22331 ft 341 kts 315°
2026-05-05 17:53 32.74212 -83.35274 22070 ft 340 kts 315°
2026-05-05 17:54 32.75967 -83.37102 21809 ft 339 kts 315°
2026-05-05 17:54 32.77735 -83.38947 21560 ft 338 kts 316°
2026-05-05 17:54 32.79503 -83.40790 21308 ft 338 kts 316°
2026-05-05 17:54 32.81263 -83.42628 21027 ft 335 kts 316°
2026-05-05 17:55 32.83007 -83.44451 20581 ft 333 kts 316°
2026-05-05 17:55 32.84748 -83.46270 20096 ft 333 kts 316°
2026-05-05 17:55 32.86491 -83.48093 19615 ft 333 kts 316°
2026-05-05 17:55 32.88231 -83.49917 19112 ft 334 kts 316°
2026-05-05 17:56 32.89976 -83.51742 18632 ft 334 kts 316°
2026-05-05 17:56 32.91704 -83.53551 18052 ft 336 kts 316°
2026-05-05 17:56 32.93460 -83.55391 17498 ft 336 kts 316°
2026-05-05 17:56 32.95218 -83.57232 16999 ft 335 kts 316°
2026-05-05 17:57 32.96971 -83.59064 16515 ft 334 kts 316°
2026-05-05 17:57 32.98716 -83.60886 16008 ft 333 kts 316°
2026-05-05 17:57 33.00460 -83.62711 15518 ft 333 kts 316°
2026-05-05 17:57 33.02194 -83.64534 15082 ft 331 kts 316°
2026-05-05 17:58 33.03901 -83.66328 14810 ft 324 kts 316°
2026-05-05 17:58 33.05583 -83.68098 14348 ft 323 kts 316°
2026-05-05 17:58 33.07274 -83.69873 13924 ft 323 kts 316°
2026-05-05 17:58 33.08961 -83.71640 13456 ft 322 kts 316°
2026-05-05 17:59 33.10639 -83.73400 13042 ft 320 kts 316°
2026-05-05 17:59 33.12265 -83.75107 12908 ft 309 kts 316°
2026-05-05 17:59 33.13858 -83.76781 12724 ft 301 kts 316°
2026-05-05 17:59 33.15416 -83.78421 12411 ft 298 kts 315°
2026-05-05 18:00 33.16963 -83.80056 12037 ft 297 kts 315°
2026-05-05 18:00 33.18515 -83.81695 11677 ft 297 kts 315°
2026-05-05 18:00 33.20036 -83.83350 11352 ft 294 kts 313°
2026-05-05 18:00 33.21494 -83.85054 11005 ft 293 kts 311°
2026-05-05 18:01 33.22927 -83.86787 10654 ft 293 kts 311°
2026-05-05 18:01 33.24355 -83.88526 10346 ft 292 kts 311°
2026-05-05 18:01 33.25783 -83.90259 10023 ft 293 kts 311°
2026-05-05 18:01 33.27212 -83.91979 9667 ft 291 kts 311°
2026-05-05 18:02 33.28642 -83.93694 9317 ft 291 kts 311°
2026-05-05 18:02 33.30056 -83.95387 9001 ft 290 kts 311°
2026-05-05 18:02 33.31484 -83.97097 8694 ft 289 kts 311°
2026-05-05 18:02 33.32907 -83.98802 8375 ft 289 kts 311°
2026-05-05 18:03 33.34327 -84.00498 8068 ft 290 kts 312°
2026-05-05 18:03 33.35940 -84.01924 7985 ft 287 kts 329°
2026-05-05 18:03 33.37830 -84.02757 8001 ft 293 kts 346°
2026-05-05 18:03 33.39877 -84.02962 7963 ft 296 kts 356°
2026-05-05 18:04 33.41951 -84.03003 7566 ft 299 kts 356°
2026-05-05 18:04 33.44026 -84.03044 7191 ft 301 kts 356°
2026-05-05 18:04 33.46126 -84.03095 6821 ft 302 kts 356°
2026-05-05 18:04 33.48225 -84.03162 6462 ft 303 kts 357°
2026-05-05 18:05 33.50289 -84.03380 6098 ft 301 kts 343°
2026-05-05 18:05 33.52186 -84.04420 5666 ft 291 kts 326°
2026-05-05 18:05 33.53850 -84.05679 5232 ft 283 kts 324°
2026-05-05 18:05 33.55484 -84.06949 4827 ft 277 kts 324°
2026-05-05 18:06 33.57070 -84.08196 4525 ft 266 kts 324°
2026-05-05 18:06 33.58105 -84.09004 4357 ft 260 kts 324°
2026-05-05 18:06 33.60095 -84.10570 4045 ft 256 kts 324°
2026-05-05 18:06 33.61511 -84.11788 3965 ft 242 kts 313°
2026-05-05 18:07 33.62519 -84.13331 3977 ft 233 kts 294°
2026-05-05 18:07 33.63065 -84.15130 3986 ft 227 kts 276°
2026-05-05 18:07 33.63155 -84.17007 3990 ft 225 kts 265°
2026-05-05 18:07 33.63158 -84.18894 3989 ft 225 kts 265°
2026-05-05 18:08 33.63161 -84.20767 3992 ft 225 kts 266°
2026-05-05 18:08 33.63166 -84.22627 3984 ft 215 kts 265°
2026-05-05 18:08 33.63171 -84.24346 3835 ft 199 kts 264°
2026-05-05 18:08 33.63173 -84.25988 3588 ft 193 kts 265°
2026-05-05 18:09 33.63172 -84.27583 3333 ft 190 kts 264°
2026-05-05 18:09 33.63173 -84.29145 3087 ft 189 kts 265°
2026-05-05 18:09 33.63175 -84.30738 2848 ft 192 kts 265°
2026-05-05 18:09 33.63178 -84.32326 2607 ft 189 kts 265°
2026-05-05 18:10 33.63181 -84.33847 2366 ft 173 kts 263°
2026-05-05 18:10 33.63182 -84.35265 2145 ft 169 kts 262°
2026-05-05 18:10 33.63182 -84.36666 1917 ft 166 kts 265°
2026-05-05 18:10 33.63184 -84.38007 1692 ft 164 kts 265°
2026-05-05 18:11 33.63175 -84.39361 1486 ft 160 kts 265°
2026-05-05 18:11 33.63177 -84.40702 1232 ft 162 kts 265°
2026-05-05 18:11 33.63181 -84.42044 1033 ft 160 kts 265°
2026-05-05 18:11 33.63177 -84.43230 1009 ft 117 kts 270°
2026-05-05 18:12 33.63180 -84.43964 1004 ft 46 kts 268°
2026-05-05 18:12 33.63178 -84.44301 1004 ft 39 kts 270°
2026-05-05 18:12 33.63182 -84.44601 1007 ft 31 kts 271°
2026-05-05 18:12 33.63218 -84.44775 1007 ft 19 kts 322°
2026-05-05 18:13 33.63337 -84.44781 1006 ft 18 kts
2026-05-05 18:13 33.63466 -84.44781 1006 ft 20 kts 359°
2026-05-05 18:13 33.63602 -84.44775 1006 ft 16 kts 13°
2026-05-05 18:13 33.63664 -84.44678 1006 ft 17 kts 89°
2026-05-05 18:14 33.63664 -84.44531 1006 ft 18 kts 90°
2026-05-05 18:14 33.63662 -84.44369 1006 ft 21 kts 90°
2026-05-05 18:14 33.63663 -84.44199 1007 ft 20 kts 89°
2026-05-05 18:14 33.63663 -84.44047 1007 ft 18 kts 90°
2026-05-05 18:15 33.63662 -84.43894 1006 ft 16 kts 89°
2026-05-05 18:15 33.63664 -84.43750 1006 ft 17 kts 90°
2026-05-05 18:15 33.63663 -84.43598 1006 ft 19 kts 90°
2026-05-05 18:15 33.63664 -84.43435 1006 ft 18 kts 88°
2026-05-05 18:16 33.63663 -84.43290 1006 ft 17 kts 90°
2026-05-05 18:16 33.63663 -84.43145 1006 ft 14 kts 88°
2026-05-05 18:16 33.63665 -84.43021 1006 ft 16 kts 90°
2026-05-05 18:16 33.63665 -84.42898 1006 ft 15 kts 89°
2026-05-05 18:17 33.63687 -84.42812 1006 ft 11 kts 35°
2026-05-05 18:17 33.63743 -84.42820 1006 ft 5 kts 294°
2026-05-05 18:17 33.63743 -84.42866 1006 ft 3 kts 266°
2026-05-05 18:17 33.63743 -84.42884 1006 ft 2 kts 271°
2026-05-05 18:18 33.63743 -84.42890 1006 ft 0 kts 270°